Regional Weather Roundup
Issued by NWS

Home | Current Version | Previous Version | Text Only | Print | Product List | Glossary Off
Versions: 1 2 3 4 5 6 7 8 9 10 11 12 13 14 15 16 17 18 19 20 21 22 23 24 25 26 27 28 29 30 31 32 33 34 35 36 37 38 39 40 41 42 43 44 45 46 47 48 49 50

075
ASUS45 KTFX 170110
RWRMT
MONTANA REGIONAL WEATHER ROUNDUP
NATIONAL WEATHER SERVICE GREAT FALLS MT
600 PM MST SAT DEC 16 2017

NOTE: "FAIR" INDICATES FEW OR NO CLOUDS BELOW 12000 FEET WITH NO
SIGNIFICANT WEATHER AND/OR OBSTRUCTIONS TO VISIBILITY.

MTZ001>007-043-170200-
WEST OF THE DIVIDE

CITY           SKY/WX    TMP DP  RH WIND       PRES   REMARKS
KALISPELL      CLOUDY    27  25  92 CALM      30.12S
MISSOULA       FAIR      28  21  75 N7        30.15R WCI  21
BUTTE          FAIR      18  14  84 NE5       30.03R
MULLAN PASS    CLOUDY    18  13  80 VRB6      30.03R WCI  10
ANACONDA         N/A     18  16  93 SW6       30.06R WCI   9
DEER LODGE       N/A     25  19  80 CALM      30.08R
EUREKA           N/A     25  19  80 MISG      30.13R
HAMILTON         N/A     21  19  93 E3        30.13R
LIBBY            N/A     25  21  86 CALM      30.15R
RONAN            N/A     18  14  84 E2        30.16
$$

MTZ008-052>055-170200-
SOUTHWEST MONTANA

CITY           SKY/WX    TMP DP  RH WIND       PRES   REMARKS
BOZEMAN        CLOUDY    26  24  92 E3        30.04R
DILLON         CLOUDY    25  21  85 S6        30.02R WCI  18
W YELLOWSTONE  CLOUDY    21  18  86 CALM      29.93R
ENNIS          CLOUDY    18  14  86 NE6       30.05R WCI   9
THREE FORKS      N/A     20  18  92 CALM      30.03R VSB 0
$$

MTZ009-010-012-014-046-048-049-054-170200-
EAST SLOPES AND CENTRAL MONTANA

CITY           SKY/WX    TMP DP  RH WIND       PRES   REMARKS
CUT BANK       FAIR      18  11  74 W13       29.97F WCI   5
GREAT FALLS    CLOUDY    26  22  84 S7        30.01R WCI  18
HELENA         FAIR      29  19  66 W9        30.04R WCI  20
CHOTEAU          N/A     28  10  47 W5        30.02S
RAYNESFORD     FAIR      20  17  86 CALM      30.02R
$$

MTZ011-013-016-021-045-047-050-051-170200-
NORTH CENTRAL MONTANA

CITY           SKY/WX    TMP DP  RH WIND       PRES   REMARKS
HAVRE          CLOUDY    30  28  92 S7        30.03S WCI  23
LEWISTOWN      MOCLDY    24  23  96 CALM      30.02R
N BAR RANCH    CLOUDY    27  18  69 W5        30.03R
CHINOOK          N/A     30  28  93 CALM      30.04S
GEYSER         FAIR      19  16  86 SW8       30.01R WCI   9
STANFORD       FAIR      19  17  95 CALM      30.00R
$$

MTZ017>020-022>027-061-062-170200-
NORTHEAST MONTANA

CITY           SKY/WX    TMP DP  RH WIND       PRES   REMARKS
GLASGOW        FAIR      27  19  72 W5        30.03R
GLENDIVE       FAIR      29  21  72 SW7       30.04R WCI  22
JORDAN           N/A     26  16  65 NW5       30.03R
SIDNEY         FAIR      29  21  72 CALM      30.03R
WOLF POINT     FAIR      25  18  74 SW8       30.05R WCI  16
MALTA          CLOUDY    28  27  93 W5        30.05R
PLENTYWOOD       N/A     28  18  64 CALM      29.99R
POPLAR           N/A     25  19  80 W6        30.04R WCI  18
SCOBEY           N/A     24   9  53 CALM      29.98R
$$

MTZ028>42-056>058-170200-
SOUTHCENTRAL AND SOUTHEAST MONTANA

CITY           SKY/WX    TMP DP  RH WIND       PRES   REMARKS
BAKER          FAIR      28  26  92 W6        30.03R WCI  22
BILLINGS       LGT SNOW  30  29  96 N6        30.04R FOG     WCI  24
LIVINGSTON     CLOUDY    24  23  96 W5        30.02R
MILES CITY     FAIR      30  22  72 W3        30.05R
BIG TIMBER     CLOUDY    27  25  93 CALM      30.05R FOG
FORSYTH          N/A     34  25  69 CALM      30.06R
LAUREL           N/A     28  28 100 NW7       30.06R FOG     WCI  21
$$

REGIONAL REPORTS...DAKOTAS

CITY           SKY/WX    TMP DP  RH WIND       PRES   REMARKS
WILLISTON      FAIR      27  21  78 CALM      30.01R
MINOT          FAIR      31  22  69 SW10      29.97R WCI  22
DICKINSON      FAIR      24  18  77 W6        29.99R WCI  17
BEACH          FAIR      27  23  86 W8        30.05R WCI  18
CROSBY         FAIR      27  19  74 W10       29.98R WCI  17
TIOGA          FAIR      23  25 100 W6        29.99R WCI  16
WATFORD CITY   FAIR      28  23  80 SW8       30.00S WCI  20
BISMARCK       FAIR      32  29  88 W6        30.02R WCI  26
GRAND FORKS    FAIR      14  13  95 S5        30.02R
FARGO          FAIR      24  23  96 S3        30.04R FOG
BUFFALO SD       N/A     31  24  75 NW8       29.95R WCI  23
RAPID CITY     CLOUDY    34  25  69 N9        30.02R WCI  27
$$

REGIONAL REPORTS...WYOMING/IDAHO/WASHINGTON

CITY           SKY/WX    TMP DP  RH WIND       PRES   REMARKS
GILLETTE       LGT SNOW  28  26  92 NE6       29.99R VSB 1   WCI  22
SHERIDAN       LGT SNOW  29  28  96 CALM      30.02R FOG
BUFFALO WY     LGT SNOW  27  21  78 W6        29.99R WCI  20
CODY           FLURRIES  26  21  81 N13       29.96R WCI  15
YELLOWSTONE LA   N/A     19  14  81 VRB3      29.90R
IDAHO FALLS    CLOUDY    24  22  91 SW9       30.02R WCI  14
SALMON         FAIR      23  17  78 SE6       30.10R WCI  16
BOISE          FAIR      33  25  72 NW12      30.12R WCI  24
SPOKANE        CLOUDY    24  23  96 SE7       30.23F FOG     WCI  16
$$

REGIONAL REPORTS...ALBERTA

CITY           SKY/WX    TMP DP  RH WIND       PRES   REMARKS
EDMONTON       CLEAR     27  14  59 SW6       29.80F WCI  20
CALGARY        MOCLDY    28   3  34 SW5       29.84F
LETHBRIDGE     PTCLDY    25  14  63 SW14      29.94S WCI  13
MEDICINE HAT   PTCLDY    30  27  86 S9        29.97S WCI  22
$$

REGIONAL REPORTS...SASKATCHEWAN

CITY           SKY/WX    TMP DP  RH WIND       PRES   REMARKS
SWIFT CURRENT  CLEAR     25  14  63 W12       29.94R WCI  14
REGINA         PTCLDY    25  19  80 W12       29.91R WCI  14
SASKATOON      MOCLDY    27  21  80 SW15      29.88S WCI  15
$$




USA.gov is the U.S. government's official web portal to all federal, state and local government web resources and services.